This is the latest recevied weather packets stored in our database for station/object IK1QAD-3. If no packets are shown the sender has not sent any weather packets the latest 10 day(s).
| Time | Temp. | Humidity | Pressure | Rain* | Wind** | Luminosity | Snow |
|---|---|---|---|---|---|---|---|
| 1777961307 | 13.33° C | 97% | 1011 hPa | 0 mm | - | - | - |
| 1777961020 | 13.33° C | 96% | 1010.8 hPa | 0 mm | - | - | - |
| 1777960715 | 13.33° C | 96% | 1010.8 hPa | 0 mm | - | - | - |
| 1777960409 | 13.33° C | 97% | 1010.9 hPa | 0 mm | - | - | - |
| 1777960104 | 12.78° C | 96% | 1010.9 hPa | 0 mm | - | - | - |
| 1777959820 | 12.78° C | 96% | 1010.7 hPa | 0 mm | - | - | - |
| 1777959513 | 12.78° C | 96% | 1010.5 hPa | 0 mm | - | - | - |
| 1777959210 | 12.78° C | 96% | 1010.5 hPa | 0 mm | - | - | - |
| 1777958908 | 12.78° C | 96% | 1010.3 hPa | 0 mm | - | - | - |
| 1777958621 | 12.78° C | 96% | 1010.2 hPa | 0 mm | - | - | - |
| 1777958320 | 12.78° C | 96% | 1010.3 hPa | 0 mm | - | - | - |
| 1777958015 | 12.78° C | 96% | 1010.3 hPa | 1.02 mm | - | - | - |
| 1777957717 | 12.78° C | 96% | 1010.3 hPa | 1.02 mm | - | - | - |
| 1777957415 | 12.78° C | 96% | 1010.2 hPa | 1.02 mm | - | - | - |
| 1777957107 | 12.78° C | 96% | 1010.4 hPa | 1.02 mm | - | - | - |
| 1777956806 | 12.78° C | 96% | 1010.3 hPa | 4.06 mm | - | - | - |
| 1777956522 | 12.78° C | 96% | 1010.3 hPa | 6.1 mm | - | - | - |
| 1777956223 | 12.78° C | 96% | 1010.3 hPa | 7.87 mm | - | - | - |
| 1777955922 | 12.78° C | 96% | 1010.3 hPa | 9.91 mm | - | - | - |
| 1777955617 | 12.78° C | 96% | 1010.3 hPa | 13.97 mm | - | - | - |
| 1777955315 | 12.78° C | 96% | 1010.2 hPa | 17.02 mm | - | - | - |
| 1777955010 | 12.78° C | 96% | 1010.3 hPa | 21.08 mm | - | - | - |
| 1777954707 | 12.78° C | 96% | 1010.6 hPa | 23.11 mm | - | - | - |
| 1777954405 | 12.78° C | 96% | 1010.4 hPa | 24.89 mm | - | - | - |
| 1777954118 | 12.78° C | 96% | 1010.4 hPa | 26.92 mm | - | - | - |
* Rain latest hour (hover to see other rain measurements)
** Current wind speed in m/s (hover to see current wind gust speed)